www.pogodaiklimat.ru

Погода и климат >> Архив погоды >> Россия >> Архангельская область >> Онега


АРХИВ ПОГОДЫ в Онеге

Время (UTC), дата Ветер
(напр.,м/с)
 
Видим.   Явления Облачность Т
(С)
Тd
(С)
f
(%)
Тe
(С)
Тes
(С)
Комфортность P
(гПа)
Po
(гПа)
Тmin
(С)
Tmax
(С)
R
(мм)
R24
(мм)
S
(см)
15 13.08 ЮВ 2 50 км 9/4 600 м
[Sc Ac trans Ci sp]
+16.9 +10.7 67 +17 +18 1009.4 1008.0 +17.2 0.3
18 13.08 ЮВ 2 50 км 10/5 600 м
[Sc Ac trans Ci fib]
+15.0 +9.8 71 +15 +15 1008.8 1007.3
21 13.08 ЮВ 1 50 км 10/8 500 м
[Sc Ac lent]
+13.3 +10.3 82 +13 +13 1007.8 1006.4
00 14.08 В 1 50 км 10/10 300 м
[St]
+12.5 +10.7 89 +12 +12 1006.7 1005.3
03 14.08 ЮВ 1 10 км слаб. морось 10/10 210 м
[St]
+12.3 +11.2 93 +12 +12 1006.3 1004.9 +12.2 0.0
06 14.08 ЮВ 1 50 км {морось} 10/10 360 м
[St]
+13.8 +12.0 89 +14 +14 1006.5 1005.1
09 14.08 ЮЗ 2 50 км 10/10 660 м
[Sc]
+16.5 +12.3 76 +17 +17 1006.4 1005.0
12 14.08 В 2 50 км 6/3 600 м
[Cu Sc Ac trans Ci fib]
+18.8 +13.0 69 +20 +24 1006.2 1004.8
15 14.08 СВ 1 50 км гроза без осадков {ливн. осадки} 9/8 960 м
[Cb cap Ac trans]
+16.6 +15.2 91 +17 +18 1005.8 1004.4 +21.1 2
18 14.08 С 1 50 км в посл. час гроза {ливн. осадки} 8/4 600 м
[Cb cap Ac trans Ci fib]
+11.9 +11.1 95 +12 +12 1007.0 1005.6
21 14.08 С 1 50 км 3/1 600 м
[Sc Ac trans]
+12.4 +11.2 92 +12 +12 1007.0 1005.6
00 15.08 С 2 50 км 6/1 1000 м
[Sc Ac trans]
+12.2 +10.8 91 +11 +11 1006.7 1005.3
03 15.08 штиль 0 50 км 10/0
[]
+11.7 +10.8 94 +11 +11 1006.6 1005.2 +11.3 15
06 15.08 С 1 50 км 10/3 1000 м
[Sc Ac lent]
+14.2 +12.4 89 +15 +15 1006.1 1004.7
09 15.08 С 3 10 км слаб. ливневой дождь 10/3 1000 м
[Cb cap Ac lent]
+16.5 +13.0 80 +16 +17 1004.9 1003.5
12 15.08 С 2 10 км слаб. ливневой дождь 10/4 600 м
[Cb cap Ac cast]
+14.3 +12.4 88 +14 +15 1004.1 1002.7
15 15.08 С 2 10 км слаб. ливневой дождь 10/4 600 м
[Cb cap Ac lent]
+12.6 +11.5 93 +12 +12 1003.7 1002.3 +16.5 5
18 15.08 С 1 10 км слаб. ливневой дождь 10/8 800 м
[Cb cap Ac cast]
+11.6 +10.9 95 +11 +11 1004.1 1002.7
21 15.08 С 3 10 км слаб. ливневой дождь 10/6 720 м
[Cb cap Ac cast]
+11.2 +10.4 95 +9 +9 1003.9 1002.4
00 16.08 С 2 50 км {ливн. осадки} 10/4 600 м
[Cb cap Ac cast]
+11.1 +9.9 92 +10 +10 1005.0 1003.6
03 16.08 С 2 50 км 8/4 1000 м
[Sc Ac lent Ci fib]
+10.9 +9.8 93 +9 +10 1006.4 1004.9 +10.4 8
06 16.08 Ю 2 50 км в посл. час ливневой дождь 10/10 540 м
[Cb cap]
+12.7 +11.3 91 +12 +12 1008.2 1006.7
09 16.08 ЮЗ 0 50 км 9/8 570 м
[Cb cap Ac trans]
+16.0 +11.8 76 +16 +17 1009.2 1007.7
12 16.08 ЮЗ 1 50 км в посл. час ливневой дождь 10/5 300 м
[Cb cap Ac trans Ci sp]
+15.7 +14.0 90 +16 +18 1010.2 1008.8
15 16.08 З 2 10 км слаб. ливневой дождь 10/8 210 м
[Cb cap Ac cast]
+13.6 +12.5 93 +13 +13 1011.6 1010.1 +18.1 6
18 16.08 З 1 50 км {ливн. осадки} 10/8 1380 м
[Cb cap Ac trans Ci sp]
+13.0 +12.4 96 +13 +13 1012.2 1010.8
21 16.08 З 1 50 км 9/4 1000 м
[Sc Ac trans]
+12.9 +12.1 95 +13 +13 1013.5 1012.0
00 17.08 С 1 500 м туман ясно +10.9 +10.5 97 +10 +10 1015.2 1013.8
03 17.08 ЮЗ 1 500 м туман ?/? +11.3 +10.9 97 +11 +11 1016.4 1014.9 +10.9 4
06 17.08 З 1 4000 м дымка {туман} 10/10 90 м
[St]
+11.8 +11.4 97 +12 +12 1017.7 1016.2
09 17.08 ЮЗ 1 50 км 6/3 300 м
[St Ac trans]
+16.6 +13.0 79 +17 +23 1018.4 1017.0
12 17.08 штиль 0 50 км 3/3 1000 м
[Cu Sc Ac trans]
+20.1 +12.8 63 +22 +28 комфорт 1018.5 1017.1
15 17.08 ЮВ 1 50 км 3/1 1000 м
[Cu hum Ac trans]
+20.6 +13.1 62 +24 +25 комфорт 1018.4 1017.0 +21.8
18 17.08 В 2 50 км 1/0
[Ac trans]
+15.8 +13.1 84 +16 +16 1018.9 1017.5
21 17.08 В 1 50 км 1/0
[Ac trans]
+14.3 +12.7 90 +15 +15 1019.4 1017.9
00 18.08 ЮВ 1 50 км 1/0
[]
+12.1 +11.4 95 +12 +12 1020.4 1018.9
03 18.08 В 1 50 км ясно +11.7 +10.6 93 +11 +12 1020.9 1019.4 +10.9
06 18.08 ЮВ 1 50 км ясно +16.4 +12.1 76 +17 +23 1020.8 1019.4
09 18.08 ЮВ 2 50 км 1/1 1000 м
[Cu med, cong]
+21.8 +10.0 47 +23 +31 комфорт 1020.0 1018.6
12 18.08 С 2 50 км 3/3 1000 м
[Cu Sc]
+23.1 +9.2 41 +25 +29 комфорт 1019.1 1017.7
15 18.08 ЮВ 1 50 км 4/3 1000 м
[Cu Sc Ac lent]
+21.7 +9.8 47 +23 +24 комфорт 1018.2 1016.8 +23.5
18 18.08 В 2 50 км 4/0
[Ci fib]
+16.4 +10.8 69 +17 +17 1018.1 1016.7
21 18.08 В 2 50 км 3/0
[Ci fib]
+15.5 +10.0 70 +15 +15 1017.9 1016.5
00 19.08 В 2 50 км 8/0
[Ac lent]
+14.1 +9.8 75 +14 +14 1017.8 1016.3
03 19.08 В 2 50 км 8/3 1000 м
[Sc Ac lent]
+14.0 +9.6 75 +14 +14 1017.1 1015.6 +13.4
06 19.08 ЮВ 3 50 км 10/10 1380 м
[Sc]
+15.9 +11.2 74 +15 +15 1015.9 1014.5
09 19.08 В 2
{10}
50 км 9/4 1000 м
[Sc Ac trans Ci fib]
+16.8 +12.4 75 +17 +20 1014.3 1012.9
12 19.08 ЮВ 2 50 км 10/10 500 м
[Cb cap]
+17.1 +13.7 80 +17 +17 1014.2 1012.8
15 19.08 В 2 50 км 10/8 480 м
[Cb cap Ac lent]
+16.8 +14.0 84 +17 +17 1013.8 1012.4 +18.9
18 19.08 ЮВ 1 50 км 10/9 600 м
[Cb cap Ac lent]
+16.4 +14.2 87 +17 +17 1014.1 1012.7
21 19.08 ЮВ 1 50 км 10/10 750 м
[Sc]
+16.3 +15.0 92 +17 +17 1014.2 1012.8
00 20.08 ЮВ 2 50 км 9/4 600 м
[Sc Ac trans]
+15.7 +14.8 94 +16 +16 1013.8 1012.3
03 20.08 ЮВ 1 20 км 10/10 210 м
[St]
+15.9 +14.9 94 +17 +17 1013.6 1012.2 +15.4
06 20.08 ЮВ 2 20 км слаб. ливневой дождь 10/10 450 м
[Cb cap]
+16.5 +15.5 94 +17 +17 1014.0 1012.5
09 20.08 Ю 2 50 км {ливн. осадки} 10/10 540 м
[Cb cap]
+17.6 +16.4 93 +18 +18 1014.9 1013.5

 

Местоположение метеостанции Онега (Архангельская область, Россия): широта 63.90 долгота 38.12 высота над уровнем моря 13 м.

В архиве по умолчанию представлена погода в Онеге за последнюю неделю. Архивные данные за месяц целиком и за предыдущие месяцы, начиная с января 2011 года, Вы можете получить, выбрав интересующий диапазон дат из раскрывающегося списка и нажав кнопку "Ввод!".


*Определитесь, кто Вы:
робот инопланетянин человек

Внимание! Время в таблицах - всемирное. Для получения местного времени необходимо прибавить поправку, которая равна 3 ч.

Смотрите также архив погоды в соседних городах и на ближайших метеорологических станциях:

Погода в Калгачихе (Архангельская область, Россия) (95 км)
Погода в Турчасово (Архангельская область, Россия) (103 км)
Погода в Унском Маяке (Архангельская область, Россия) (104 км)
Погода в Северодвинске (Архангельская область, Россия) (110 км)
Погода в Колежме (Карелия, Россия) (115 км)
Погода в Архангельске (Архангельская область, Россия) (143 км)
Погода на Мудьюг Острове (Архангельская область, Россия) (148 км)
Погода в Жижгине (Архангельская область, Россия) (158 км)
Погода в Плесецке (Архангельская область, Россия) (169 км)
Погода в Соловках (Архангельская область, Россия) (170 км)

Пояснения к столбцам:

Ветер - указаны скорость ветра в м/с - средняя за 10 мин, порывы в срок и между сроками (в фигурных скобках) и направление, откуда дует ветер: С - северный, СВ - северо-восточный, В - восточный, ЮВ - юго-восточный, Ю - южный, ЮЗ - юго-западный, З - западный, СЗ - северо-западный.
Видимость - горизонтальная дальность видимости в метрах или километрах. При видимости от 1 до 10 км при отсутствии осадков обычно наблюдается дымка, при ухудшении видимости до 1 км и менее - туман. В сухую погоду видимость может ухудшаться дымом, пылью или мглою.
Явления - указаны атмосферные явления, наблюдавшиеся в срок или в последний час перед сроком; фигурными скобками обозначены явления, наблюдавшиеся между сроками (за 1-3 часа до срока); квадратными скобками обозначены град или гололедные отложения с указанием их диаметра в мм.
Облачность - указаны через наклонную черту общая и нижняя облачность в баллах и высота нижней границы облаков в метрах; квадратными скобками обозначены формы облаков: Ci - перистые, Cs - перисто-слоистые, Cc - перисто-кучевые, Ac - высококучевые, As - высокослоистые, Sc - слоисто-кучевые, Ns - слоисто-дождевые, Cu - кучевые, Cb - кучево-дождевые. Подробнее классификацию облаков см. в Атласе облаков (PDF).
T - Температура воздуха - температура, измеренная на высоте 2 м над землей.
Td - Температура точки росы - температура, при понижении до которой содержащийся в воздухе водяной пар достигнет насыщения.
f - Относительная влажность воздуха - влажноcть воздуха, измеренная на высоте 2 м над землей.
Te - Эффективная температура - температура, которую ощущает одетый по сезону человек в тени. Характеристика душности погоды. При расчете учитывается влияние влажности воздуха и скорости ветра на теплоощущения человека.
Tes - Эффективная температура на солнце - температура, которую ощущает человек, с поправкой на солнечный нагрев. Характеристика знойности погоды. Зависит от высоты солнца над горизонтом, облачности и скорости ветра. Ночью, в пасмурную погоду, а также при ветре 12 м/с и более поправка равна нулю.
P - Атмосферное давление - приведенное к уровню моря атмосферное давление.
Po - Атмосферное давление - измеренное на уровне метеостанции атмосферное давление.
Tmin - Минимальная температура - минимум температуры воздуха на высоте 2 м над землей.
Tmax - Максимальная температура - максимум температуры воздуха на высоте 2 м над землей.
R - Количество осадков - Количество выпавших осадков за период времени, мм. При наведении курсора мыши на число - период времени, за который выпало указанное количество осадков.
R24 - Количество осадков - Количество выпавших осадков за 24 часа, мм.
S - Снежный покров - Высота снежного покрова, см. При наведении курсора мыши на число - состояние снежного покрова и степень покрытия местности в баллах.